This is the latest recevied weather packets stored in our database for station/object HB9HUT-13. If no packets are shown the sender has not sent any weather packets the latest 10 day(s).
| Time | Temp. | Humidity | Pressure | Rain* | Wind** | Luminosity | Snow |
|---|---|---|---|---|---|---|---|
| 1778088369 | 10.56° C | 48% | 838.9 hPa | - | - | - | - |
| 1778087466 | 11.11° C | 49% | 838.8 hPa | - | - | - | - |
| 1778086563 | 11.11° C | 48% | 838.6 hPa | - | - | - | - |
| 1778086563 | 11.11° C | 48% | 838.6 hPa | - | - | - | - |
| 1778085660 | 11.11° C | 47% | 838.6 hPa | - | - | - | - |
| 1778085660 | 11.11° C | 47% | 838.6 hPa | - | - | - | - |
| 1778084757 | 11.11° C | 47% | 838.6 hPa | - | - | - | - |
| 1778083854 | 10.56° C | 47% | 838.4 hPa | - | - | - | - |
| 1778083854 | 10.56° C | 47% | 838.4 hPa | - | - | - | - |
| 1778082952 | 10.56° C | 48% | 838.6 hPa | - | - | - | - |
| 1778082951 | 10.56° C | 48% | 838.6 hPa | - | - | - | - |
| 1778082048 | 10.56° C | 48% | 838.4 hPa | - | - | - | - |
| 1778082048 | 10.56° C | 48% | 838.4 hPa | - | - | - | - |
| 1778081145 | 10.56° C | 49% | 838.6 hPa | - | - | - | - |
| 1778081145 | 10.56° C | 49% | 838.6 hPa | - | - | - | - |
| 1778080242 | 11.11° C | 47% | 838.5 hPa | - | - | - | - |
| 1778080242 | 11.11° C | 47% | 838.5 hPa | - | - | - | - |
| 1778079339 | 11.11° C | 46% | 838.7 hPa | - | - | - | - |
| 1778079339 | 11.11° C | 46% | 838.7 hPa | - | - | - | - |
| 1778078436 | 11.11° C | 46% | 838.6 hPa | - | - | - | - |
| 1778078436 | 11.11° C | 46% | 838.6 hPa | - | - | - | - |
| 1778077533 | 11.67° C | 46% | 838.4 hPa | - | - | - | - |
| 1778077533 | 11.67° C | 46% | 838.4 hPa | - | - | - | - |
| 1778076630 | 12.22° C | 46% | 838.3 hPa | - | - | - | - |
| 1778075727 | 12.78° C | 47% | 837.9 hPa | - | - | - | - |
* Rain since midnight (hover to see other rain measurements)
** Current wind speed in m/s (hover to see current wind gust speed)